This demonstration page uses our WeatherBlox Daily Observations layout. Learn more.

Left ArrowRight Arrow

44.89941, -97.11507

Hourly Observations for April 25, 2016

Temp ( °F °C ) Dew Point ( °F °C ) Humidity (%) Winds ( mph kmh ) Pressure ( in mb ) Visibility ( mi km ) Precip ( " mm )
12:00 am 00:00 Cloudy with Nearby Thunderstorms 55 12.8 53 11.7 93 93 ENE 10 17 29.50 999 9 14 0.00 0.00
12:13 am 00:13 Cloudy with Light Rain 56 13.3 53 11.7 90 90 E 12 19 29.47 998 9 14 0.01 0.25
12:53 am 00:53 Cloudy 55 12.8 52 11.1 90 90 E 10 17 29.44 997 10 16 0.06 1.52
1:28 am 01:28 Cloudy 56 13.3 53 11.7 90 90 E 13 20 29.47 998 10 16 0.00 0.03
1:53 am 01:53 Cloudy 56 13.3 53 11.7 90 90 E 10 17 29.44 997 10 16 0.00 0.03
2:06 am 02:06 Cloudy with Nearby Thunderstorms 56 13.3 53 11.7 90 90 ESE 8 13 29.47 998 10 16 0.00 0.00
2:33 am 02:33 Cloudy with Strong Thunderstorms 56 13.3 52 11.1 87 87 VRB 7 11 29.47 998 5 8 0.06 1.52
2:53 am 02:53 Cloudy with Thunderstorms 55 12.8 52 11.1 90 90 N 12 19 29.46 998 10 16 0.07 1.78
3:02 am 03:02 Cloudy with Nearby Thunderstorms 55 12.8 53 11.7 93 93 NNE 13 20 29.47 998 10 16 0.00 0.03
3:18 am 03:18 Cloudy with Light Rain 55 12.8 52 11.1 90 90 ENE 9 15 29.44 997 10 16 0.00 0.03
3:32 am 03:32 Cloudy with Light Rain 54 12.2 52 11.1 93 93 E 7 11 29.44 997 10 16 0.01 0.25
3:53 am 03:53 Cloudy 54 12.2 51 10.6 90 90 E 9 15 29.44 997 10 16 0.01 0.25
4:15 am 04:15 Mostly Cloudy 54 12.2 51 10.6 90 90 E 3 6 29.47 998 10 16 0.00 0.00
4:46 am 04:46 Cloudy with Rain 51 10.6 49 9.4 92 92 N 12 19 29.50 999 6 10 0.02 0.51
4:53 am 04:53 Cloudy with Rain 51 10.6 49 9.4 92 92 NNW 10 17 29.47 998 4 6 0.03 0.76
5:29 am 05:29 Cloudy with Light Rain 49 9.4 47 8.3 93 93 N 8 13 29.53 1000 7 11 0.04 1.02
5:45 am 05:45 Cloudy with Rain 48 8.9 46 7.8 93 93 NNW 15 24 29.53 1000 4 6 0.08 2.03
5:53 am 05:53 Cloudy with Light Rain 48 8.9 46 7.8 93 93 N 10 17 29.49 999 6 10 0.09 2.29
6:26 am 06:26 Mostly Cloudy 48 8.9 46 7.8 93 93 NNE 8 13 29.53 1000 10 16 0.01 0.25
6:35 am 06:35 Partly Cloudy 48 8.9 45 7.2 89 89 NE 8 13 29.53 1000 10 16 0.01 0.25
6:53 am 06:53 Sunny 48 8.9 45 7.2 89 89 NE 7 11 29.49 999 10 16 0.01 0.25
7:53 am 07:53 Sunny 48 8.9 45 7.2 89 89 N 3 6 29.50 999 10 16 0.00 0.00
8:53 am 08:53 Partly Cloudy 50 10 47 8.3 89 89 NW 9 15 29.51 999 10 16 0.00 0.00
9:18 am 09:18 Partly Cloudy 52 11.1 48 8.9 86 86 W 12 19 29.53 1000 10 16 0.00 0.00
9:29 am 09:29 Mostly Cloudy 52 11.1 48 8.9 86 86 WNW 14 22 29.53 1000 10 16 0.00 0.00
9:53 am 09:53 Cloudy 50 10 47 8.3 89 89 WNW 15 24 29.56 1001 10 16 0.00 0.00
10:53 am 10:53 Cloudy 51 10.6 46 7.8 83 83 WNW 13 20 29.58 1002 10 16 0.00 0.00
11:07 am 11:07 Cloudy 52 11.1 46 7.8 80 80 WNW 14 22 29.59 1002 10 16 0.00 0.00
11:53 am 11:53 Cloudy 50 10 44 6.7 80 80 WNW 15 24 29.61 1003 10 16 0.00 0.00
12:00 pm 12:00 Cloudy 50 10 45 7.2 83 83 WNW 13 20 29.62 1003 10 16 0.00 0.00
12:40 pm 12:40 Cloudy 51 10.6 44 6.7 77 77 W 14 22 29.62 1003 10 16 0.00 0.00
12:53 pm 12:53 Cloudy 49 9.4 43 6.1 80 80 WNW 10 17 29.62 1003 10 16 0.00 0.00
1:53 pm 13:53 Cloudy 50 10 43 6.1 77 77 WNW 13 20 29.63 1004 10 16 0.00 0.00
2:53 pm 14:53 Cloudy 50 10 43 6.1 77 77 W 10 17 29.66 1004 10 16 0.00 0.00
3:53 pm 15:53 Cloudy 49 9.4 42 5.6 77 77 WNW 9 15 29.67 1005 10 16 0.00 0.00
4:33 pm 16:33 Cloudy 49 9.4 42 5.6 77 77 WNW 9 15 29.68 1005 10 16 0.00 0.00
4:53 pm 16:53 Cloudy 48 8.9 41 5 77 77 WNW 13 20 29.69 1005 10 16 0.00 0.00
5:53 pm 17:53 Cloudy 48 8.9 41 5 77 77 WNW 12 19 29.70 1006 10 16 0.00 0.00
6:53 pm 18:53 Cloudy 48 8.9 40 4.4 74 74 W 12 19 29.72 1006 10 16 0.00 0.00
7:53 pm 19:53 Cloudy 47 8.3 39 3.9 74 74 W 10 17 29.73 1007 10 16 0.00 0.00
8:53 pm 20:53 Cloudy 46 7.8 39 3.9 77 77 WNW 8 13 29.75 1008 10 16 0.00 0.00
9:53 pm 21:53 Cloudy 46 7.8 39 3.9 77 77 W 9 15 29.78 1009 10 16 0.00 0.00
10:53 pm 22:53 Cloudy 46 7.8 40 4.4 79 79 WNW 8 13 29.79 1009 10 16 0.00 0.00
11:53 pm 23:53 Cloudy 45 7.2 39 3.9 80 80 WNW 7 11 29.80 1009 10 16 0.00 0.00

Powered by AerisWeather